| time (UTC) | temp F | wind direction | speed MPH | gust MPH | rain 1hr in | rain 24hr in | rain mn in | humidity % | barometer mb |
| 20260510033507 | 77 | 187 | 0.0 | 2.0 | 0.00 | 0.00 | 0.00 | 79 | 1011.5 |
| 20260510033019 | 77 | 196 | 0.0 | 2.0 | 0.00 | 0.00 | 0.00 | 79 | 1011.5 |
| 20260510032504 | 77 | 199 | 0.0 | 2.0 | 0.00 | 0.00 | 0.00 | 79 | 1011.4 |
| 20260510032010 | 77 | 194 | 0.0 | 1.0 | 0.00 | 0.00 | 0.00 | 78 | 1011.4 |
| 20260510031522 | 78 | 194 | 0.0 | 2.0 | 0.00 | 0.00 | 0.00 | 78 | 1011.4 |
| 20260510031009 | 78 | 180 | 0.0 | 2.0 | 0.00 | 0.00 | 0.00 | 77 | 1011.4 |
| 20260510030510 | 78 | 171 | 0.0 | 2.0 | 0.00 | 0.00 | 0.00 | 77 | 1011.3 |
| 20260510030002 | 78 | 218 | 0.0 | 3.0 | 0.00 | 0.00 | 0.00 | 76 | 1011.2 |
| 20260510025502 | 79 | 169 | 0.0 | 3.0 | 0.00 | 0.00 | 0.00 | 76 | 1011.2 |
| 20260510025003 | 79 | 206 | 0.0 | 2.0 | 0.00 | 0.00 | 0.00 | 75 | 1011.2 |
| 20260510024506 | 79 | 194 | 0.0 | 2.0 | 0.00 | 0.00 | 0.00 | 75 | 1011.0 |
| 20260510024003 | 79 | 198 | 0.0 | 3.0 | 0.00 | 0.00 | 0.00 | 74 | 1011.0 |
| 20260510023503 | 80 | 234 | 0.0 | 3.0 | 0.00 | 0.00 | 0.00 | 74 | 1010.9 |
| 20260510023006 | 80 | 155 | 0.0 | 3.0 | 0.00 | 0.00 | 0.00 | 73 | 1010.8 |
| 20260510022502 | 80 | 183 | 0.0 | 3.0 | 0.00 | 0.00 | 0.00 | 73 | 1010.7 |
| 20260510022003 | 80 | 195 | 0.0 | 5.0 | 0.00 | 0.00 | 0.00 | 72 | 1010.6 |
| 20260510021503 | 80 | 196 | 1.0 | 5.0 | 0.00 | 0.00 | 0.00 | 71 | 1010.6 |
| 20260510021002 | 80 | 197 | 0.0 | 3.0 | 0.00 | 0.00 | 0.00 | 70 | 1010.4 |
| 20260510020503 | 80 | 209 | 0.0 | 2.0 | 0.00 | 0.00 | 0.00 | 70 | 1010.3 |
| 20260510020003 | 80 | 194 | 0.0 | 2.0 | 0.00 | 0.00 | 0.00 | 70 | 1010.2 |
| 20260510015503 | 80 | 231 | 0.0 | 2.0 | 0.00 | 0.00 | 0.00 | 69 | 1010.1 |
| 20260510015002 | 80 | 222 | 0.0 | 2.0 | 0.00 | 0.00 | 0.00 | 69 | 1010.1 |
| 20260510014503 | 80 | 208 | 0.0 | 2.0 | 0.00 | 0.00 | 0.00 | 69 | 1010.0 |
| 20260510014005 | 80 | 209 | 0.0 | 1.0 | 0.00 | 0.00 | 0.00 | 68 | 1010.0 |
| 20260510013502 | 81 | 209 | 0.0 | 0.0 | 0.00 | 0.00 | 0.00 | 66 | 1010.0 |
| 20260510013004 | 81 | 209 | 0.0 | 2.0 | 0.00 | 0.00 | 0.00 | 65 | 1010.0 |
| 20260510012502 | 82 | 209 | 0.0 | 2.0 | 0.00 | 0.00 | 0.00 | 64 | 1010.0 |
| 20260510012002 | 82 | 194 | 0.0 | 4.0 | 0.00 | 0.00 | 0.00 | 63 | 1010.0 |
| 20260510011504 | 83 | 196 | 0.0 | 4.0 | 0.00 | 0.00 | 0.00 | 62 | 1009.9 |
| 20260510011002 | 83 | 223 | 0.0 | 4.0 | 0.00 | 0.00 | 0.00 | 61 | 1010.0 |
| 20260510010502 | 83 | 205 | 0.0 | 5.0 | 0.00 | 0.00 | 0.00 | 60 | 1010.0 |
| 20260510010004 | 84 | 173 | 2.0 | 5.0 | 0.00 | 0.00 | 0.00 | 59 | 1009.9 |
| 20260510005502 | 84 | 209 | 1.0 | 6.0 | 0.00 | 0.00 | 0.00 | 58 | 1009.9 |
| 20260510005002 | 84 | 226 | 1.0 | 6.0 | 0.00 | 0.00 | 0.00 | 58 | 1009.8 |
| 20260510004504 | 84 | 207 | 1.0 | 6.0 | 0.00 | 0.00 | 0.00 | 57 | 1009.8 |
| 20260510004001 | 84 | 138 | 0.0 | 7.0 | 0.00 | 0.00 | 0.00 | 56 | 1009.8 |
| 20260510003502 | 84 | 208 | 3.0 | 7.0 | 0.00 | 0.00 | 0.00 | 55 | 1009.8 |
| 20260510003003 | 84 | 198 | 0.0 | 7.0 | 0.00 | 0.00 | 0.00 | 57 | 1009.7 |
| 20260510002502 | 85 | 114 | 2.0 | 7.0 | 0.00 | 0.00 | 0.00 | 57 | 1009.7 |
| 20260510002002 | 85 | 207 | 0.0 | 5.0 | 0.00 | 0.00 | 0.00 | 58 | 1009.7 |
| 20260510001506 | 85 | 196 | 1.0 | 6.0 | 0.00 | 0.00 | 0.00 | 57 | 1009.6 |
| 20260510001003 | 85 | 201 | 2.0 | 6.0 | 0.00 | 0.00 | 0.00 | 57 | 1009.6 |
| 20260510000503 | 85 | 165 | 1.0 | 3.0 | 0.00 | 0.00 | 0.00 | 56 | 1009.6 |
| 20260510000004 | 85 | 219 | 1.0 | 7.0 | 0.00 | 0.00 | 0.00 | 56 | 1009.5 |
| 20260509235503 | 85 | 194 | 2.0 | 7.0 | 0.00 | 0.00 | 0.00 | 57 | 1009.4 |
| 20260509235003 | 85 | 189 | 1.0 | 5.0 | 0.00 | 0.00 | 0.00 | 58 | 1009.4 |
| 20260509234504 | 85 | 209 | 1.0 | 4.0 | 0.00 | 0.00 | 0.00 | 57 | 1009.4 |
| 20260509234004 | 85 | 84 | 0.0 | 5.0 | 0.00 | 0.00 | 0.00 | 58 | 1009.3 |
| 20260509233504 | 86 | 142 | 1.0 | 4.0 | 0.00 | 0.00 | 0.00 | 57 | 1009.2 |
| 20260509233003 | 85 | 281 | 0.0 | 5.0 | 0.00 | 0.00 | 0.00 | 58 | 1009.2 |
| 20260509232503 | 86 | 147 | 1.0 | 5.0 | 0.00 | 0.00 | 0.00 | 58 | 1009.2 |
| 20260509232003 | 86 | 167 | 1.0 | 4.0 | 0.00 | 0.00 | 0.00 | 58 | 1009.2 |
| 20260509231504 | 86 | 127 | 1.0 | 4.0 | 0.00 | 0.00 | 0.00 | 57 | 1009.2 |
| 20260509231003 | 86 | 184 | 1.0 | 4.0 | 0.00 | 0.00 | 0.00 | 56 | 1009.2 |
| 20260509230504 | 86 | 195 | 1.0 | 3.0 | 0.00 | 0.00 | 0.00 | 56 | 1009.2 |
| 20260509230004 | 86 | 181 | 0.0 | 6.0 | 0.00 | 0.00 | 0.00 | 55 | 1009.2 |
| 20260509225503 | 86 | 242 | 1.0 | 6.0 | 0.00 | 0.00 | 0.00 | 56 | 1009.3 |
| 20260509225003 | 86 | 195 | 0.0 | 5.0 | 0.00 | 0.00 | 0.00 | 55 | 1009.2 |
| 20260509224504 | 86 | 167 | 0.0 | 6.0 | 0.00 | 0.00 | 0.00 | 53 | 1009.3 |
| 20260509224004 | 86 | 92 | 1.0 | 6.0 | 0.00 | 0.00 | 0.00 | 53 | 1009.3 |
| 20260509223504 | 86 | 166 | 1.0 | 5.0 | 0.00 | 0.00 | 0.00 | 53 | 1009.3 |
| 20260509223006 | 86 | 183 | 0.0 | 4.0 | 0.00 | 0.00 | 0.00 | 52 | 1009.3 |
| 20260509222503 | 86 | 168 | 1.0 | 4.0 | 0.00 | 0.00 | 0.00 | 52 | 1009.3 |
| 20260509222002 | 86 | 201 | 0.0 | 7.0 | 0.00 | 0.00 | 0.00 | 52 | 1009.2 |
| 20260509221513 | 86 | 207 | 1.0 | 8.0 | 0.00 | 0.00 | 0.00 | 51 | 1009.2 |
| 20260509221007 | 86 | 137 | 1.0 | 8.0 | 0.00 | 0.00 | 0.00 | 51 | 1009.3 |
| 20260509220502 | 86 | 165 | 1.0 | 4.0 | 0.00 | 0.00 | 0.00 | 51 | 1009.3 |
| 20260509220005 | 86 | 170 | 1.0 | 5.0 | 0.00 | 0.00 | 0.00 | 50 | 1009.3 |
| 20260509215502 | 86 | 210 | 1.0 | 7.0 | 0.00 | 0.00 | 0.00 | 47 | 1009.3 |
| 20260509215002 | 86 | 161 | 0.0 | 7.0 | 0.00 | 0.00 | 0.00 | 47 | 1009.3 |
| 20260509214505 | 86 | 105 | 2.0 | 7.0 | 0.00 | 0.00 | 0.00 | 43 | 1009.4 |
| 20260509214003 | 86 | 225 | 1.0 | 6.0 | 0.00 | 0.00 | 0.00 | 46 | 1009.5 |
| 20260509213502 | 87 | 193 | 2.0 | 7.0 | 0.00 | 0.00 | 0.00 | 44 | 1009.5 |
| 20260509213006 | 87 | 204 | 0.0 | 7.0 | 0.00 | 0.00 | 0.00 | 46 | 1009.5 |
| 20260509212503 | 88 | 227 | 2.0 | 6.0 | 0.00 | 0.00 | 0.00 | 48 | 1009.6 |
| 20260509212002 | 88 | 206 | 1.0 | 4.0 | 0.00 | 0.00 | 0.00 | 44 | 1009.6 |
| 20260509211505 | 88 | 117 | 0.0 | 3.0 | 0.00 | 0.00 | 0.00 | 41 | 1009.6 |
| 20260509211004 | 88 | 157 | 0.0 | 3.0 | 0.00 | 0.00 | 0.00 | 38 | 1009.7 |
| 20260509210503 | 88 | 114 | 1.0 | 3.0 | 0.00 | 0.00 | 0.00 | 39 | 1009.8 |
| 20260509210004 | 88 | 173 | 1.0 | 4.0 | 0.00 | 0.00 | 0.00 | 39 | 1009.9 |
| 20260509205504 | 87 | 148 | 1.0 | 5.0 | 0.00 | 0.00 | 0.00 | 39 | 1010.0 |
| 20260509205002 | 87 | 150 | 1.0 | 4.0 | 0.00 | 0.00 | 0.00 | 39 | 1010.0 |
| 20260509204504 | 87 | 117 | 1.0 | 3.0 | 0.00 | 0.00 | 0.00 | 44 | 1010.0 |
| 20260509204004 | 86 | 173 | 0.0 | 4.0 | 0.00 | 0.00 | 0.00 | 42 | 1010.1 |
| 20260509203504 | 86 | 80 | 0.0 | 4.0 | 0.00 | 0.00 | 0.00 | 43 | 1010.2 |
| 20260509203004 | 85 | 221 | 0.0 | 3.0 | 0.00 | 0.00 | 0.00 | 41 | 1010.2 |
| 20260509202503 | 84 | 159 | 0.0 | 6.0 | 0.00 | 0.00 | 0.00 | 45 | 1010.3 |
| 20260509202003 | 84 | 117 | 3.0 | 8.0 | 0.00 | 0.00 | 0.00 | 46 | 1010.3 |
| 20260509201503 | 84 | 34 | 2.0 | 9.0 | 0.00 | 0.00 | 0.00 | 47 | 1010.6 |
| 20260509201001 | 83 | 118 | 2.0 | 12.0 | 0.00 | 0.00 | 0.00 | 46 | 1010.9 |
| 20260509200502 | 83 | 161 | 3.0 | 12.0 | 0.00 | 0.00 | 0.00 | 48 | 1011.1 |
| 20260509200003 | 82 | 174 | 3.0 | 10.0 | 0.00 | 0.00 | 0.00 | 49 | 1011.2 |
| 20260509195505 | 81 | 208 | 3.0 | 10.0 | 0.00 | 0.00 | 0.00 | 47 | 1011.4 |
| 20260509195002 | 81 | 193 | 3.0 | 11.0 | 0.00 | 0.00 | 0.00 | 44 | 1011.5 |
| 20260509194504 | 81 | 212 | 3.0 | 11.0 | 0.00 | 0.00 | 0.00 | 46 | 1011.4 |
| 20260509194001 | 81 | 205 | 1.0 | 11.0 | 0.00 | 0.00 | 0.00 | 50 | 1011.3 |
| 20260509193502 | 82 | 200 | 5.0 | 11.0 | 0.00 | 0.00 | 0.00 | 49 | 1011.2 |
| 20260509193003 | 85 | 155 | 3.0 | 9.0 | 0.00 | 0.00 | 0.00 | 55 | 1011.3 |
| 20260509192502 | 87 | 102 | 2.0 | 7.0 | 0.00 | 0.00 | 0.00 | 61 | 1011.1 |
| 20260509192005 | 87 | 95 | 1.0 | 8.0 | 0.00 | 0.00 | 0.00 | 61 | 1010.8 |
| 20260509191504 | 87 | 45 | 2.0 | 8.0 | 0.00 | 0.00 | 0.00 | 64 | 1010.8 |
| 20260509191003 | 87 | 28 | 3.0 | 10.0 | 0.00 | 0.00 | 0.00 | 62 | 1010.8 |
| 20260509190502 | 87 | 323 | 3.0 | 10.0 | 0.00 | 0.00 | 0.00 | 61 | 1010.9 |
| 20260509190008 | 87 | 36 | 4.0 | 9.0 | 0.00 | 0.00 | 0.00 | 60 | 1010.8 |
| 20260509185503 | 87 | 53 | 0.0 | 6.0 | 0.00 | 0.00 | 0.00 | 61 | 1010.8 |
| 20260509185003 | 87 | 37 | 1.0 | 7.0 | 0.00 | 0.00 | 0.00 | 62 | 1010.8 |
| 20260509184507 | 87 | 327 | 3.0 | 7.0 | 0.00 | 0.00 | 0.00 | 61 | 1011.0 |
| 20260509184002 | 87 | 53 | 1.0 | 6.0 | 0.00 | 0.00 | 0.00 | 62 | 1011.1 |
| 20260509183502 | 87 | 159 | 1.0 | 6.0 | 0.00 | 0.00 | 0.00 | 64 | 1011.2 |
| 20260509183004 | 87 | 46 | 0.0 | 6.0 | 0.00 | 0.00 | 0.00 | 63 | 1011.3 |
| 20260509182504 | 87 | 13 | 1.0 | 5.0 | 0.00 | 0.00 | 0.00 | 65 | 1011.4 |
| 20260509182002 | 87 | 310 | 0.0 | 6.0 | 0.00 | 0.00 | 0.00 | 64 | 1011.4 |
| 20260509181504 | 88 | 53 | 2.0 | 6.0 | 0.00 | 0.00 | 0.00 | 61 | 1011.5 |
| 20260509181002 | 88 | 19 | 0.0 | 2.0 | 0.00 | 0.00 | 0.00 | 63 | 1011.6 |
| 20260509180501 | 87 | 38 | 1.0 | 2.0 | 0.00 | 0.00 | 0.00 | 64 | 1011.6 |
| 20260509180010 | 86 | 108 | 0.0 | 3.0 | 0.00 | 0.00 | 0.00 | 66 | 1011.5 |
| 20260509175507 | 86 | 98 | 0.0 | 2.0 | 0.00 | 0.00 | 0.00 | 66 | 1011.7 |
| 20260509175005 | 85 | 336 | 0.0 | 2.0 | 0.00 | 0.00 | 0.00 | 69 | 1011.8 |
| 20260509174512 | 85 | 271 | 0.0 | 3.0 | 0.00 | 0.00 | 0.00 | 68 | 1011.8 |
| 20260509174002 | 85 | 42 | 0.0 | 3.0 | 0.00 | 0.00 | 0.00 | 68 | 1011.7 |
| 20260509173504 | 86 | 5 | 0.0 | 3.0 | 0.00 | 0.00 | 0.00 | 66 | 1011.7 |
| 20260509173007 | 86 | 352 | 0.0 | 3.0 | 0.00 | 0.00 | 0.00 | 68 | 1011.9 |
| 20260509172503 | 85 | 249 | 1.0 | 4.0 | 0.00 | 0.00 | 0.00 | 69 | 1012.0 |
| 20260509172004 | 85 | 352 | 0.0 | 4.0 | 0.00 | 0.00 | 0.00 | 69 | 1012.1 |
| 20260509171503 | 86 | 344 | 1.0 | 4.0 | 0.00 | 0.00 | 0.00 | 67 | 1012.2 |
| 20260509171003 | 86 | 24 | 1.0 | 5.0 | 0.00 | 0.00 | 0.00 | 70 | 1012.2 |
| 20260509170504 | 85 | 346 | 0.0 | 5.0 | 0.00 | 0.00 | 0.00 | 71 | 1012.3 |
| 20260509170013 | 84 | 14 | 2.0 | 5.0 | 0.00 | 0.00 | 0.00 | 71 | 1012.4 |
| 20260509165502 | 83 | 329 | 0.0 | 2.0 | 0.00 | 0.00 | 0.00 | 75 | 1012.3 |
| 20260509165004 | 82 | 128 | 0.0 | 3.0 | 0.00 | 0.00 | 0.00 | 73 | 1012.2 |
| 20260509164512 | 82 | 127 | 0.0 | 3.0 | 0.00 | 0.00 | 0.00 | 74 | 1012.2 |
| 20260509164005 | 82 | 18 | 0.0 | 3.0 | 0.00 | 0.00 | 0.00 | 74 | 1012.3 |
| 20260509163506 | 83 | 9 | 0.0 | 2.0 | 0.00 | 0.00 | 0.00 | 73 | 1012.3 |
| 20260509163013 | 83 | 5 | 0.0 | 2.0 | 0.00 | 0.00 | 0.00 | 72 | 1012.4 |
| 20260509162503 | 83 | 348 | 0.0 | 2.0 | 0.00 | 0.00 | 0.00 | 75 | 1012.4 |
| 20260509162005 | 82 | 32 | 0.0 | 2.0 | 0.00 | 0.00 | 0.00 | 75 | 1012.2 |
| 20260509161504 | 82 | 277 | 1.0 | 2.0 | 0.00 | 0.00 | 0.00 | 76 | 1012.2 |
| 20260509161003 | 81 | 292 | 0.0 | 2.0 | 0.00 | 0.00 | 0.00 | 76 | 1012.0 |
| 20260509160504 | 81 | 281 | 1.0 | 3.0 | 0.00 | 0.00 | 0.00 | 77 | 1012.2 |
| 20260509160004 | 81 | 253 | 0.0 | 3.0 | 0.00 | 0.00 | 0.00 | 79 | 1012.2 |
| 20260509155503 | 80 | 207 | 1.0 | 3.0 | 0.00 | 0.00 | 0.00 | 80 | 1012.2 |
| 20260509155007 | 79 | 284 | 0.0 | 2.0 | 0.00 | 0.00 | 0.00 | 81 | 1012.2 |
| 20260509154507 | 78 | 248 | 1.0 | 2.0 | 0.00 | 0.00 | 0.00 | 82 | 1012.3 |
| 20260509154003 | 78 | 261 | 0.0 | 2.0 | 0.00 | 0.00 | 0.00 | 82 | 1012.3 |
| 20260509153507 | 78 | 223 | 1.0 | 2.0 | 0.00 | 0.00 | 0.00 | 83 | 1012.2 |
| 20260509153015 | 78 | 248 | 1.0 | 3.0 | 0.00 | 0.00 | 0.00 | 83 | 1012.2 |
| 20260509152506 | 78 | 245 | 1.0 | 4.0 | 0.00 | 0.00 | 0.00 | 84 | 1012.1 |
| 20260509152006 | 77 | 279 | 1.0 | 4.0 | 0.00 | 0.00 | 0.00 | 85 | 1012.1 |
| 20260509151503 | 77 | 132 | 1.0 | 3.0 | 0.00 | 0.00 | 0.00 | 85 | 1012.0 |
| 20260509151003 | 76 | 189 | 0.0 | 2.0 | 0.00 | 0.00 | 0.00 | 86 | 1011.9 |
| 20260509150503 | 76 | 222 | 0.0 | 2.0 | 0.00 | 0.00 | 0.00 | 86 | 1011.9 |
| 20260509150004 | 76 | 288 | 0.0 | 2.0 | 0.00 | 0.00 | 0.00 | 85 | 1011.9 |
| 20260509145504 | 77 | 145 | 1.0 | 2.0 | 0.00 | 0.00 | 0.00 | 83 | 1011.9 |
| 20260509145003 | 78 | 240 | 1.0 | 5.0 | 0.00 | 0.00 | 0.00 | 83 | 1011.9 |
| 20260509144508 | 78 | 109 | 1.0 | 5.0 | 0.00 | 0.00 | 0.00 | 83 | 1011.9 |
| 20260509144004 | 78 | 120 | 1.0 | 5.0 | 0.00 | 0.00 | 0.00 | 85 | 1011.9 |
| 20260509143504 | 78 | 197 | 2.0 | 5.0 | 0.00 | 0.00 | 0.00 | 85 | 1011.7 |
| 20260509143014 | 77 | 278 | 0.0 | 8.0 | 0.00 | 0.00 | 0.00 | 84 | 1011.7 |
| 20260509142503 | 78 | 198 | 2.0 | 8.0 | 0.00 | 0.00 | 0.00 | 85 | 1011.6 |
| 20260509142003 | 77 | 192 | 1.0 | 4.0 | 0.00 | 0.00 | 0.00 | 86 | 1011.5 |
| 20260509141527 | 77 | 221 | 0.0 | 3.0 | 0.00 | 0.00 | 0.00 | 87 | 1011.3 |
| 20260509141007 | 77 | 196 | 0.0 | 2.0 | 0.00 | 0.00 | 0.00 | 88 | 1011.2 |
| 20260509140506 | 76 | 231 | 0.0 | 2.0 | 0.00 | 0.00 | 0.00 | 89 | 1011.1 |
| 20260509140005 | 75 | 231 | 0.0 | 2.0 | 0.00 | 0.00 | 0.00 | 91 | 1011.1 |
| 20260509135506 | 75 | 231 | 0.0 | 2.0 | 0.00 | 0.00 | 0.00 | 93 | 1011.0 |
| 20260509135002 | 74 | 261 | 0.0 | 2.0 | 0.00 | 0.00 | 0.00 | 93 | 1011.1 |
| 20260509134508 | 74 | 216 | 0.0 | 2.0 | 0.00 | 0.00 | 0.00 | 94 | 1011.3 |
| 20260509134005 | 73 | 214 | 0.0 | 2.0 | 0.00 | 0.00 | 0.00 | 95 | 1011.4 |
| 20260509133502 | 73 | 226 | 0.0 | 2.0 | 0.00 | 0.00 | 0.00 | 95 | 1011.3 |
| 20260509133012 | 73 | 209 | 0.0 | 2.0 | 0.00 | 0.00 | 0.00 | 95 | 1011.2 |
| 20260509132504 | 72 | 209 | 1.0 | 2.0 | 0.00 | 0.00 | 0.00 | 96 | 1011.2 |
| 20260509132006 | 72 | 211 | 1.0 | 2.0 | 0.00 | 0.00 | 0.00 | 96 | 1011.5 |
| 20260509131516 | 72 | 184 | 0.0 | 2.0 | 0.00 | 0.00 | 0.00 | 96 | 1011.5 |
| 20260509131007 | 72 | 184 | 0.0 | 2.0 | 0.00 | 0.00 | 0.00 | 96 | 1011.8 |
| 20260509130507 | 72 | 184 | 0.0 | 2.0 | 0.00 | 0.00 | 0.00 | 96 | 1011.8 |
| 20260509130039 | 71 | 184 | 0.0 | 2.0 | 0.00 | 0.00 | 0.00 | 96 | 1011.8 |
| 20260509125507 | 71 | 30 | 0.0 | 1.0 | 0.00 | 0.00 | 0.00 | 96 | 1011.9 |
| 20260509125008 | 71 | 30 | 0.0 | 0.0 | 0.00 | 0.00 | 0.00 | 96 | 1011.9 |
| 20260509124504 | 71 | 30 | 0.0 | 0.0 | 0.00 | 0.00 | 0.00 | 96 | 1011.9 |
| 20260509124003 | 71 | 30 | 0.0 | 0.0 | 0.00 | 0.00 | 0.00 | 96 | 1011.8 |
| 20260509123502 | 71 | 30 | 0.0 | 0.0 | 0.00 | 0.00 | 0.00 | 96 | 1011.8 |
| 20260509123018 | 71 | 30 | 0.0 | 0.0 | 0.00 | 0.00 | 0.00 | 96 | 1011.5 |
| 20260509122503 | 71 | 30 | 0.0 | 1.0 | 0.00 | 0.00 | 0.00 | 96 | 1011.5 |
| 20260509122007 | 71 | 30 | 0.0 | 2.0 | 0.00 | 0.00 | 0.00 | 96 | 1011.4 |
| 20260509121520 | 71 | 30 | 0.0 | 2.0 | 0.00 | 0.00 | 0.00 | 96 | 1011.4 |
| 20260509121007 | 70 | 30 | 0.0 | 2.0 | 0.00 | 0.00 | 0.00 | 96 | 1011.4 |
| 20260509120510 | 70 | 34 | 0.0 | 2.0 | 0.00 | 0.00 | 0.00 | 95 | 1011.5 |
| 20260509120020 | 70 | 34 | 0.0 | 0.0 | 0.00 | 0.00 | 0.00 | 95 | 1011.4 |
| 20260509115506 | 71 | 34 | 0.0 | 0.0 | 0.00 | 0.00 | 0.00 | 95 | 1011.3 |
| 20260509115009 | 71 | 34 | 0.0 | 2.0 | 0.00 | 0.00 | 0.00 | 95 | 1011.4 |
| 20260509114521 | 71 | 34 | 0.0 | 2.0 | 0.00 | 0.00 | 0.00 | 95 | 1011.6 |
| 20260509114007 | 71 | 34 | 0.0 | 1.0 | 0.00 | 0.00 | 0.00 | 95 | 1011.9 |
| 20260509113512 | 71 | 34 | 0.0 | 1.0 | 0.00 | 0.00 | 0.00 | 95 | 1012.3 |
| 20260509113007 | 71 | 34 | 0.0 | 2.0 | 0.00 | 0.00 | 0.00 | 95 | 1012.3 |
| 20260509112503 | 71 | 34 | 0.0 | 2.0 | 0.00 | 0.00 | 0.00 | 95 | 1012.4 |
| 20260509112006 | 71 | 47 | 0.0 | 3.0 | 0.00 | 0.00 | 0.00 | 95 | 1012.6 |
| 20260509111513 | 71 | 22 | 1.0 | 3.0 | 0.00 | 0.00 | 0.00 | 95 | 1012.6 |
| 20260509111006 | 71 | 12 | 0.0 | 2.0 | 0.00 | 0.00 | 0.00 | 95 | 1012.5 |
| 20260509110506 | 71 | 38 | 1.0 | 2.0 | 0.00 | 0.00 | 0.00 | 95 | 1012.6 |
| 20260509110022 | 71 | 19 | 0.0 | 2.0 | 0.00 | 0.00 | 0.00 | 95 | 1012.7 |
| 20260509105507 | 71 | 43 | 0.0 | 2.0 | 0.00 | 0.00 | 0.00 | 95 | 1012.7 |
| 20260509105010 | 71 | 43 | 0.0 | 2.0 | 0.00 | 0.00 | 0.00 | 95 | 1012.6 |
| 20260509104505 | 71 | 43 | 0.0 | 2.0 | 0.00 | 0.00 | 0.00 | 95 | 1012.5 |
| 20260509104002 | 71 | 360 | 0.0 | 2.0 | 0.00 | 0.00 | 0.00 | 95 | 1012.8 |
| 20260509103502 | 71 | 72 | 0.0 | 2.0 | 0.00 | 0.00 | 0.00 | 95 | 1012.8 |
| 20260509103008 | 71 | 72 | 0.0 | 2.0 | 0.00 | 0.00 | 0.00 | 95 | 1012.7 |
| 20260509102505 | 71 | 42 | 0.0 | 2.0 | 0.00 | 0.00 | 0.00 | 95 | 1012.8 |
| 20260509102004 | 71 | 42 | 0.0 | 2.0 | 0.00 | 0.00 | 0.00 | 95 | 1012.8 |
| 20260509101515 | 71 | 159 | 0.0 | 0.0 | 0.00 | 0.00 | 0.00 | 95 | 1012.6 |
| 20260509101003 | 71 | 159 | 0.0 | 0.0 | 0.00 | 0.00 | 0.00 | 95 | 1012.4 |
| 20260509100505 | 71 | 159 | 0.0 | 0.0 | 0.00 | 0.00 | 0.00 | 95 | 1012.1 |
| 20260509100019 | 71 | 159 | 0.0 | 0.0 | 0.00 | 0.00 | 0.00 | 95 | 1012.0 |
| 20260509095507 | 71 | 159 | 0.0 | 0.0 | 0.00 | 0.00 | 0.00 | 95 | 1011.8 |
| 20260509095007 | 71 | 159 | 0.0 | 0.0 | 0.00 | 0.00 | 0.00 | 95 | 1011.8 |
| 20260509094521 | 71 | 159 | 0.0 | 0.0 | 0.00 | 0.00 | 0.00 | 95 | 1011.5 |
| 20260509094009 | 71 | 159 | 0.0 | 0.0 | 0.00 | 0.00 | 0.00 | 95 | 1011.3 |
| 20260509093505 | 71 | 159 | 0.0 | 0.0 | 0.00 | 0.00 | 0.00 | 95 | 1011.3 |
| 20260509093017 | 71 | 159 | 0.0 | 0.0 | 0.00 | 0.00 | 0.00 | 95 | 1011.2 |
| 20260509092502 | 71 | 159 | 0.0 | 0.0 | 0.00 | 0.00 | 0.00 | 95 | 1011.1 |
| 20260509092003 | 71 | 159 | 0.0 | 0.0 | 0.00 | 0.00 | 0.00 | 95 | 1011.2 |
| 20260509091509 | 71 | 159 | 0.0 | 2.0 | 0.00 | 0.00 | 0.00 | 95 | 1011.1 |
| 20260509091003 | 71 | 159 | 0.0 | 2.0 | 0.00 | 0.00 | 0.00 | 95 | 1011.1 |
| 20260509090504 | 71 | 159 | 0.0 | 0.0 | 0.00 | 0.00 | 0.00 | 95 | 1011.1 |
| 20260509090013 | 71 | 159 | 0.0 | 0.0 | 0.00 | 0.00 | 0.00 | 95 | 1011.1 |
| 20260509085507 | 71 | 159 | 0.0 | 0.0 | 0.00 | 0.00 | 0.00 | 95 | 1011.2 |
| 20260509085005 | 71 | 159 | 0.0 | 0.0 | 0.00 | 0.00 | 0.00 | 95 | 1011.3 |
| 20260509084520 | 71 | 159 | 0.0 | 0.0 | 0.00 | 0.00 | 0.00 | 95 | 1011.3 |
| 20260509084008 | 71 | 159 | 0.0 | 0.0 | 0.00 | 0.00 | 0.00 | 94 | 1011.4 |
| 20260509083511 | 71 | 159 | 0.0 | 0.0 | 0.00 | 0.00 | 0.00 | 94 | 1011.5 |
| 20260509083024 | 71 | 159 | 0.0 | 0.0 | 0.00 | 0.00 | 0.00 | 94 | 1011.6 |
| 20260509082506 | 71 | 159 | 0.0 | 0.0 | 0.00 | 0.00 | 0.00 | 94 | 1011.7 |
| 20260509082010 | 71 | 159 | 0.0 | 0.0 | 0.00 | 0.00 | 0.00 | 94 | 1011.7 |
| 20260509081508 | 71 | 159 | 0.0 | 0.0 | 0.00 | 0.00 | 0.00 | 94 | 1011.7 |
| 20260509081006 | 71 | 159 | 0.0 | 0.0 | 0.00 | 0.00 | 0.00 | 94 | 1011.5 |
| 20260509080504 | 71 | 159 | 0.0 | 0.0 | 0.00 | 0.00 | 0.00 | 94 | 1011.6 |
| 20260509080009 | 71 | 159 | 0.0 | 0.0 | 0.00 | 0.00 | 0.00 | 94 | 1011.6 |
| 20260509075506 | 71 | 159 | 0.0 | 1.0 | 0.00 | 0.00 | 0.00 | 94 | 1011.8 |
| 20260509075006 | 71 | 159 | 0.0 | 2.0 | 0.00 | 0.00 | 0.00 | 94 | 1011.7 |
| 20260509074517 | 71 | 159 | 0.0 | 2.0 | 0.00 | 0.00 | 0.00 | 93 | 1011.7 |
| 20260509074008 | 71 | 144 | 0.0 | 1.0 | 0.00 | 0.00 | 0.00 | 93 | 1011.7 |
| 20260509073507 | 71 | 256 | 0.0 | 0.0 | 0.00 | 0.00 | 0.00 | 93 | 1011.8 |
| 20260509073020 | 71 | 257 | 0.0 | 0.0 | 0.00 | 0.00 | 0.00 | 93 | 1011.9 |
| 20260509072515 | 71 | 256 | 0.0 | 0.0 | 0.00 | 0.00 | 0.00 | 93 | 1012.0 |
| 20260509072010 | 72 | 256 | 0.0 | 0.0 | 0.00 | 0.00 | 0.00 | 93 | 1011.9 |
| 20260509071524 | 72 | 256 | 0.0 | 0.0 | 0.00 | 0.00 | 0.00 | 93 | 1012.1 |
| 20260509071007 | 72 | 256 | 0.0 | 0.0 | 0.00 | 0.00 | 0.00 | 93 | 1012.2 |
| 20260509070506 | 72 | 256 | 0.0 | 1.0 | 0.00 | 0.00 | 0.00 | 92 | 1012.0 |
| 20260509070009 | 72 | 257 | 0.0 | 1.0 | 0.00 | 0.00 | 0.00 | 92 | 1012.1 |
| 20260509065503 | 72 | 180 | 0.0 | 2.0 | 0.00 | 0.00 | 0.00 | 92 | 1012.0 |
| 20260509065009 | 72 | 180 | 0.0 | 2.0 | 0.00 | 0.00 | 0.00 | 92 | 1011.7 |
| 20260509064517 | 72 | 172 | 0.0 | 2.0 | 0.00 | 0.00 | 0.00 | 92 | 1011.6 |
| 20260509064007 | 72 | 205 | 0.0 | 3.0 | 0.00 | 0.00 | 0.00 | 91 | 1011.7 |
| 20260509063504 | 72 | 182 | 0.0 | 5.0 | 0.00 | 0.00 | 0.00 | 91 | 1011.7 |
| 20260509063021 | 72 | 195 | 0.0 | 4.0 | 0.00 | 0.00 | 0.00 | 91 | 1011.9 |
| 20260509062507 | 72 | 187 | 0.0 | 2.0 | 0.00 | 0.00 | 0.00 | 91 | 1011.9 |
| 20260509062008 | 72 | 173 | 0.0 | 5.0 | 0.00 | 0.00 | 0.00 | 90 | 1011.7 |
| 20260509061524 | 73 | 160 | 0.0 | 6.0 | 0.00 | 0.00 | 0.00 | 90 | 1011.5 |
| 20260509061009 | 73 | 192 | 1.0 | 6.0 | 0.00 | 0.00 | 0.00 | 90 | 1011.5 |
| 20260509060509 | 73 | 188 | 0.0 | 2.0 | 0.00 | 0.00 | 0.00 | 90 | 1011.4 |
| 20260509060024 | 73 | 202 | 0.0 | 2.0 | 0.00 | 0.00 | 0.00 | 90 | 1011.2 |
| 20260509055507 | 73 | 224 | 0.0 | 2.0 | 0.00 | 0.00 | 0.00 | 90 | 1011.4 |
| 20260509055009 | 73 | 232 | 0.0 | 4.0 | 0.00 | 0.00 | 0.00 | 90 | 1011.4 |
| 20260509054522 | 73 | 217 | 0.0 | 4.0 | 0.00 | 0.00 | 0.00 | 89 | 1011.5 |
| 20260509054007 | 73 | 117 | 0.0 | 5.0 | 0.00 | 0.00 | 0.00 | 89 | 1011.3 |
| 20260509053509 | 73 | 199 | 1.0 | 6.0 | 0.00 | 0.00 | 0.00 | 89 | 1010.9 |
| 20260509053035 | 73 | 205 | 1.0 | 5.0 | 0.00 | 0.00 | 0.00 | 89 | 1010.6 |
| 20260509052504 | 73 | 228 | 1.0 | 6.0 | 0.00 | 0.00 | 0.00 | 89 | 1010.6 |
| 20260509052002 | 73 | 192 | 1.0 | 6.0 | 0.00 | 0.00 | 0.00 | 89 | 1010.6 |
| 20260509051502 | 73 | 194 | 0.0 | 4.0 | 0.00 | 0.00 | 0.00 | 89 | 1010.6 |
| 20260509051003 | 73 | 191 | 0.0 | 3.0 | 0.00 | 0.00 | 0.00 | 89 | 1010.6 |
| 20260509050503 | 73 | 209 | 0.0 | 4.0 | 0.00 | 0.00 | 0.00 | 88 | 1010.6 |
| 20260509050027 | 73 | 202 | 1.0 | 4.0 | 0.00 | 0.00 | 0.00 | 88 | 1010.4 |
| 20260509045503 | 73 | 195 | 0.0 | 4.0 | 0.00 | 0.00 | 0.00 | 88 | 1010.5 |
| 20260509045002 | 73 | 240 | 0.0 | 4.0 | 0.00 | 0.00 | 0.00 | 88 | 1010.6 |
| 20260509044515 | 73 | 206 | 0.0 | 6.0 | 0.00 | 0.00 | 0.00 | 87 | 1010.6 |
| 20260509044004 | 73 | 205 | 0.0 | 6.0 | 0.00 | 0.00 | 0.00 | 87 | 1010.6 |
| 20260509043504 | 73 | 181 | 0.0 | 2.0 | 0.00 | 0.00 | 0.00 | 87 | 1010.8 |
| 20260509043016 | 73 | 222 | 0.0 | 3.0 | 0.00 | 0.00 | 0.00 | 87 | 1010.9 |
| 20260509042510 | 73 | 229 | 0.0 | 3.0 | 0.00 | 0.00 | 0.00 | 87 | 1010.9 |
| 20260509042008 | 73 | 221 | 0.0 | 2.0 | 0.00 | 0.00 | 0.00 | 87 | 1011.0 |
| 20260509041506 | 73 | 210 | 0.0 | 2.0 | 0.00 | 0.00 | 0.00 | 87 | 1011.1 |
| 20260509041003 | 74 | 53 | 0.0 | 2.0 | 0.00 | 0.00 | 0.00 | 86 | 1011.1 |
| 20260509040506 | 74 | 180 | 0.0 | 4.0 | 0.00 | 0.00 | 0.00 | 87 | 1011.1 |
| 20260509040002 | 74 | 130 | 0.0 | 4.0 | 0.00 | 0.00 | 0.00 | 87 | 1011.1 |
| 20260509035506 | 73 | 245 | 0.0 | 4.0 | 0.00 | 0.00 | 0.00 | 87 | 1011.1 |
| 20260509035006 | 74 | 217 | 0.0 | 2.0 | 0.00 | 0.00 | 0.00 | 87 | 1010.9 |
| 20260509034508 | 73 | 227 | 0.0 | 3.0 | 0.00 | 0.00 | 0.00 | 88 | 1010.9 |
| 20260509034006 | 73 | 214 | 0.0 | 3.0 | 0.00 | 0.00 | 0.00 | 88 | 1010.8 |